Regional Weather Roundup
Issued by NWS

Home | Current Version | Previous Version | Text Only | Print | Product List | Glossary On
Versions: 1 2 3 4 5 6 7 8 9 10 11 12 13 14 15 16 17 18 19 20 21 22 23 24 25 26 27 28 29 30 31 32 33 34 35 36 37 38 39 40 41 42 43 44 45 46 47 48 49 50
000
ASUS43 KLOT 300509
RWRIL

ILLINOIS REGIONAL WEATHER ROUNDUP
NATIONAL WEATHER SERVICE CHICAGO/ROMEOVILLE IL
1200 AM CDT TUE MAY 30 2017

NOTE: "FAIR" INDICATES FEW OR NO CLOUDS BELOW 12,000 FEET WITH NO
SIGNIFICANT WEATHER AND/OR OBSTRUCTIONS TO VISIBILITY.

* THESE STATIONS ARE NOT UNDER NWS QUALITY CONTROL. THEY ALSO MAY NOT
  REPORT WEATHER SUCH AS PRECIPITATION OR FOG.

ILZ001-002-007-009-015-016-024-300600-
NORTHWEST ILLINOIS

CITY           SKY/WX    TMP DP  RH WIND       PRES   REMARKS
MOLINE         CLEAR     62  44  51 NW8       29.94R
STERLING*      CLEAR     57  48  72 W6        29.93R
SAVANNA*       CLEAR     62  47  59 W6        29.92R
$$

ILZ003-004-008-010-011-017-018-300600-
NORTH CENTRAL ILLINOIS

CITY           SKY/WX    TMP DP  RH WIND       PRES   REMARKS
ROCKFORD       CLEAR     58  48  69 W8        29.92R
FREEPORT*      PTCLDY    55  46  72 W3        29.93S
ROCHELLE*      CLEAR     56  47  73 W6        29.92R
DE KALB*       CLEAR     61  46  58 W13       29.91R
PERU*          CLEAR     59  45  60 W7        29.93R
$$

ILZ005-006-012>014-019>023-300600-
NORTHEAST ILLINOIS

CITY           SKY/WX    TMP DP  RH WIND       PRES   REMARKS
CHICAGO-OHARE  PTCLDY    60  46  59 CALM      29.89R
CHICAGO-MIDWAY CLOUDY    66  46  48 SW8       29.89R
AURORA         CLEAR     58  47  66 W7        29.90S
LANSING*       PTCLDY    57  49  74 W7        29.91R
JOLIET*        CLEAR     62  48  62 CALM      29.91S
WAUKEGAN       PTCLDY    54  53  97 SW3       29.87R
DUPAGE AIRPORT CLEAR     60  47  61 W3        29.89R
KANKAKEE*      CLEAR     58  46  63 CALM      29.93R
WHEELING       CLEAR     60  49  66 W3        29.90S
MORRIS*        CLEAR     57  46  66 CALM      29.91R
ROMEOVILLE*    CLEAR     61  49  65 W7        29.91R
NORTHERLY ISL    N/A     68  44  42 W2          N/A
$$

LMZ740>746-300600-
SOUTHERN LAKE MICHIGAN

STATION/POSITION SKY/WX   TEMP    WIND        PRES    VSBY  WAVE
                          AIR SEA DIR/SP/G                  HT/PER
                          (F)     (DEG/KT/KT) (MB)    (MI)  (FT/S)
SOUTHERN BUOY              54 48  330/ 12/ 12 1011.5          1/ 4
WILMETTE HARBOR            55 53  250/  4/  4   N/A           1/ 2
HARRISON CRIB              62     360/ 12/ 13   N/A
BURNHAM HARBOR             67     270/  4/  7   N/A
CALUMET HARBOR             66     230/  6/  9 1011.9R
BURNS HARBOR               65     220/  5/  7 1012.9S
MICHIGAN CITY              63     180/  6/  7   N/A
MICHIGAN CITY 6N           59 56  210/  6/  8   N/A           1/ 3
ST. JOSEPH                 60 59  270/  6/ 14 1012.6          1/ 4
$$

ILZ025>027-034>036-040-047-049-050-058-095>099-300600-
WEST-CENTRAL ILLINOIS

CITY           SKY/WX    TMP DP  RH WIND       PRES   REMARKS
QUINCY         PTCLDY    59  48  67 SW5       29.98S
GALESBURG*     CLEAR     60  45  57 W6          N/A
MACOMB*        CLEAR     57  46  65 W7        29.99R
JACKSONVILLE*  PTCLDY    62  48  61 W5        29.98R
PITTSFIELD*    MOCLDY    64  49  57 W3        30.00S
$$

ILZ028>032-037-038-041>044-048-051>054-059>061-300600-
CENTRAL ILLINOIS

CITY           SKY/WX    TMP DP  RH WIND       PRES   REMARKS
PONTIAC        CLEAR     60  48  63 W3        29.94R
BLOOMINGTON    CLEAR     61  44  53 W6        29.96S
DECATUR        PTCLDY    64  46  52 W5        29.97R
PEORIA         CLEAR     59  45  59 W3        29.95R
LACON*         CLEAR     57  48  71 CALM      29.93S
LINCOLN*       PTCLDY    66  45  46 CALM      29.96S
SPRINGFIELD    CLEAR     62  53  72 SW3       29.98R
TAYLORVILLE    MOCLDY    58  53  81 CALM      29.98R
$$

ILZ033-039-045-046-055>057-062-063-300600-
EAST-CENTRAL ILLINOIS

CITY           SKY/WX    TMP DP  RH WIND       PRES   REMARKS
CHAMPAIGN      MOCLDY    62  48  60 SW5       29.96R
RANTOUL*       PTCLDY    61  49  64 W3        29.95S
MATTOON        PTCLDY    62  55  77 CALM      29.97R
PARIS*         CLEAR     60  56  87 CALM      29.98R
$$

ILZ079-100>102-300600-
SOUTHWEST ILLINOIS

CITY           SKY/WX    TMP DP  RH WIND       PRES   REMARKS
ALTON          MOCLDY    60  58  92 CALM      29.99S
BELLEVILLE     CLEAR     62  61  96 CALM      29.99S
CAHOKIA*       MOCLDY    62  60  93 CALM      29.99R
SPARTA*        CLEAR     63  58  83 CALM      30.01R
$$

ILZ064>066-069>071-074>076-080>082-084>086-088>090-092>094-300600-
SOUTH-CENTRAL ILLINOIS

CITY           SKY/WX    TMP DP  RH WIND       PRES   REMARKS
CARBONDALE     CLEAR     63  60  90 CALM      29.99S
CAIRO*         CLEAR     71  63  76 CALM      30.00R
EFFINGHAM*     PTCLDY    57  57 100 CALM      30.00R
MARION         CLEAR     61  61 100 CALM      30.01R
MT. VERNON       N/A     58  58 100 NE3       30.00R FOG
CENTRALIA*     CLEAR     62  59  91 CALM      29.98S
SALEM*         CLEAR     62  59  91 CALM      29.99S
METROPOLIS*    CLOUDY    66  63  92 CALM      30.01R
$$

ILZ067-068-072-073-078-083-087-091-300600-
SOUTHEAST ILLINOIS

CITY           SKY/WX    TMP DP  RH WIND       PRES   REMARKS
LAWRENCEVILLE  CLEAR     65  54  67 W5        29.98R
FLORA*         CLEAR     64  57  78 CALM      29.99R
FAIRFIELD*     CLEAR     63  57  82 CALM      29.99R
HARRISBURG*    PTCLDY    63  62  97 CALM      30.00R
ROBINSON*      CLEAR     63  54  73 W7        29.98R
CARMI*         PTCLDY    63  60  90 CALM      30.00R
$$

ABBREVIATIONS USED IN REMARKS
   TC - TEMPERATURE IN CELSIUS
  WCI - WIND CHILL INDEX
   HX - HEAT INDEX
  VSB - VISIBILITY
$$





USA.gov is the U.S. government's official web portal to all federal, state and local government web resources and services.